[Iaude] MPEC P07: 2024 OW1 [a=2.19,e=0.50,i=7.7,H=24.8]

mpec at cfa.harvard.edu mpec at cfa.harvard.edu
Thu Aug 1 06:54:29 EDT 2024


M.P.E.C. 2024-P07                                Issued 2024 August 1, 10:53 UT

     The Minor Planet Electronic Circulars contain information on unusual
         minor planets, routine data on comets and natural satellites,
         and occasional editorial announcements.  They are published
    on behalf of Division F of the International Astronomical Union by the
          Minor Planet Center, Smithsonian Astrophysical Observatory,
                          Cambridge, MA 02138, U.S.A.
			  
             Prepared using the Tamkin Foundation Computer Network

                              MPC at CFA.HARVARD.EDU
            URL https://www.minorplanetcenter.net/    ISSN 1523-6714

                                    2024 OW1                                    


Observations:
     K24O01W  C2024 07 29.34487319 43 36.814-21 39 59.29         19.94wXEP007F52
     K24O01W* C2024 07 29.34552819 43 37.163-21 40 02.81         20.23wXEP007F52
     K24O01W  C2024 07 29.34879919 43 39.052-21 40 21.14         20.25wXEP007F52
     K24O01W  C2024 07 29.34945319 43 39.425-21 40 24.58         20.47wXEP007F52
     K24O01W  C2024 07 29.35273119 43 41.254-21 40 42.23         19.97wXEP007F52
     K24O01W  C2024 07 29.35731319 43 43.845-21 41 07.47         20.59wXEP007F52
     K24O01W  C2024 07 29.43949419 44 30.254-21 48 30.75         20.06GVEP007F52
     K24O01W  C2024 07 29.44014819 44 30.621-21 48 34.09         20.02GVEP007F52
     K24O01W  C2024 07 29.44080319 44 30.993-21 48 37.67         20.03GVEP007F52
     K24O01W  C2024 07 29.44145819 44 31.362-21 48 41.16         20.10GVEP007F52
     K24O01W KB2024 07 29.85646 19 48 49.72 -22 26 15.4          19.7 VZEP007M45
     K24O01W KB2024 07 29.86108 19 48 52.44 -22 26 41.0                ZEP007M45
     K24O01W 3C2024 07 30.36506919 54 08.153-23 10 56.60         19.98GVEP007T14
     K24O01W 3C2024 07 30.36604619 54 08.775-23 11 02.27         20.00GVEP007T14
     K24O01W 3C2024 07 30.36702519 54 09.326-23 11 07.30         20.08GVEP007T14
     K24O01W 3C2024 07 30.36800619 54 09.892-23 11 12.50         20.10GVEP007T14
     K24O01W 3C2024 07 30.36912019 54 10.548-23 11 18.49         20.10GVEP007T14
     K24O01W 3C2024 07 30.37009819 54 11.124-23 11 23.73         20.04GVEP007T14
     K24O01W 3C2024 07 30.37108019 54 11.696-23 11 28.96         20.02GVEP007T14
     K24O01W !C2024 08 01.28084 20 14 49.51 -25 55 22.3                VEP007673
     K24O01W !C2024 08 01.28362 20 14 51.28 -25 55 36.7          19.7 GVEP007673

Observer details:
673 Table Mountain Observatory, Wrightwood.  Observer J. Pittichova.  1.0-m
    f/15 reflector + CCD.
F52 Pan-STARRS 2, Haleakala.  Observers J. Herman, T. Lowe, P. Minguez, A.
    Schultz, I. Smith.  Measurers K. Chambers, T. de Boer, J. Fairlamb, H.
    Gao, M. Huber, C.-C. Lin, E. Magnier, Y. Ramanjooloo, R. Wainscoat, R.
    Weryk.  1.8-m Ritchey-Chretien + CCD.
M45 Starhopper Observatory, Sfantu Gheorghe.  Observer F. Ursache.  0.41-m
    f/7.5 reflector + CMO.
T14 Canada-France-Hawaii Telescope, Maunakea.  Observers R. Wainscoat, J.
    Silva, V. Khatu.  Measurers R. Weryk, R. Wainscoat.  3.6-m f/4.1 reflector
    + CCD.

Orbital elements:
2024 OW1                                                 Earth MOID = 0.0807 AU
Epoch 2024 Oct. 17.0 TT = JDT 2460600.5                 Veres                   
M  23.38027              (2000.0)            P               Q                  
n   0.30464112     Peri.  183.24518     +0.62228520     +0.77513132             
a   2.1874780      Node   125.26845     -0.71515001     +0.61969601             
e   0.4994143      Incl.    7.68885     -0.31831054     +0.12307837             
P   3.24           H   24.81          G   0.15           U   9                  
Residuals in seconds of arc
240729 F52  0.1+  0.0     240729 F52  0.2-  0.2+    240730 T14  0.4+  0.2-
240729 F52  0.2-  0.1+    240729 F52  0.2-  0.1+    240730 T14  0.3+  0.2-
240729 F52  0.3+  0.3-    240729 F52  0.2-  0.1+    240730 T14  0.4+  0.2-
240729 F52  0.3+  0.2-    240729 M45  1.2-  1.0+    240730 T14  0.4+  0.2-
240729 F52  0.0   0.1+    240729 M45  1.1-  0.4+    240730 T14  0.4+  0.2-
240729 F52  0.0   0.1-    240730 T14  0.1+  0.0     240801 673  0.4-  0.3+
240729 F52  0.2-  0.0     240730 T14  0.8+  0.4-    240801 673  0.1+  0.2-

Ephemeris:
2024 OW1                 a,e,i = 2.19, 0.50, 8                   q = 1.0950
Date    TT    R. A. (2000) Decl.     Delta      r    Elong.  Phase     V
2024 07 02    17 23 51.1 +04 13 23   0.1551  1.1490   146.3    29.4    22.3
...
2024 07 17    18 10 44.0 -05 09 04   0.1040  1.1091   151.9    25.6    21.3
...
2024 07 25    19 03 26.7 -15 08 48   0.08650 1.0982   161.7    16.9    20.6
...
2024 07 31    20 00 50.1 -24 05 13   0.08135 1.0951   168.9    10.3    20.2
2024 08 01    20 11 41.9 -25 30 26   0.08130 1.0950   169.2    10.0    20.2
2024 08 02    20 22 49.1 -26 52 07   0.08150 1.0950   169.1    10.1    20.2
...
2024 08 08    21 31 05.7 -33 13 11   0.08753 1.0978   162.4    16.2    20.6
...
2024 08 16    22 48 17.9 -36 27 11   0.1062  1.1083   152.9    24.6    21.3
...
2024 08 31    00 03 30.8 -34 56 27   0.1602  1.1474   147.2    28.5    22.4

M. P. C. Staff               (C) Copyright 2024 MPC           M.P.E.C. 2024-P07





More information about the Iaude mailing list